World > North America > United States > North Carolina > Princeville

Hourly Princeville, NC Regional Weather

Feedback E-mail the Weather

Quick WX

Princeville, NC Weather Maps

°F °C°F °C
Princeville Weather Map
UTC Time: 8/13/2022, 06:08
Your Time:

Princeville, NC Regional Weather

Expires:202208130600;;007910
ASUS42 KMHX 130526
RWRMHX
WEATHER ROUNDUP FOR EASTERN NORTH CAROLINA
NATIONAL WEATHER SERVICE NEWPORT/MOREHEAD CITY NC
100 AM EDT SAT AUG 13 2022

NOTE: "FAIR" INDICATES FEW OR NO CLOUDS BELOW 12,000 FEET
WITH NO SIGNIFICANT WEATHER AND/OR OBSTRUCTIONS TO VISIBILITY


NCZ011>013-027>030-043-044-078>080-089-090>093-098-130600-
COASTAL PLAIN
  
CITY           SKY/WX    TMP DP  RH WIND       PRES   REMARKS
AHOSKIE        CLEAR     63  63 100 CALM      30.06S FOG              
ROCKY MOUNT    CLEAR     67  65  93 CALM      30.08S FOG              
GREENVILLE     CLEAR     64  64 100 CALM      30.06S                  
WASHINGTON     CLEAR     66  65  94 CALM      30.06F                  
GOLDSBORO      CLEAR     67  58  73 CALM      30.05R                  
KINSTON        CLEAR     65  65 100 CALM      30.07F                  
NEW BERN       MOCLDY    67  66  97 CALM      30.07S                  
HAVELOCK       CLEAR     66  65  96 W3        30.07                   
KENANSVILLE    CLEAR     64  64 100 CALM      30.07F FOG              
RICHLANDS      CLEAR     64  63  96 CALM      30.07S                  
CLINTON        CLEAR     67  67 100 CALM      30.07F                  
ELIZABETHTOWN  CLEAR     67  66  97 CALM      30.07F                  
WHITEVILLE     CLEAR     67  66  96 N3        30.08S                  

$$


SKY/WX - Weather  TMP - Temperature  DP - Dew Point  RH - Humidity
WIND - Wind Direction/Speed PRES - Barometric Pressure VSB - Visibility
WCI - Wind Chill Index E13G22 Wind - East Wind 13 mph/Gusts of 22 mph

Trending Headlines

Princeville Radar Loop



Princeville Quick Facts


National Two Day Weather Forecast


E-mail the Princeville Weather Forecast

Voice your opinion or tell us about page issues...